Temp
77 76 76 75 76 76 76 76 76 76 76 76 76 76 75 75 74 72 73 71 77 76 76 76 75 75 75 75 75 75 74 74 75
76 76 76 76 75 76 76 76 76 75 75 75 75 75 74 75 72 69 68 71 76 76 75 75 75 75 75 75 75 74 74 74 74
76 76 77 76 76 76 76 76 75 75 75 75 74 74 73 75 71 68 67 74 75 75 75 74 74 74 74 74 74 74 74 74 74
75 75 76 75 75 75 75 75 75 74 74 74 73 73 73 72 71 73 67 74 75 75 74 74 74 74 74 74 74 74 73 73 73
74 73 75 74 74 74 74 74 74 73 73 73 72 71 71 71 70 68 68 74 75 74 74 74 73 73 73 73 73 73 73 73 73
70 70 71 72 73 73 73 73 73 71 70 71 71 70 70 71 70 67 72 74 74 73 73 73 73 72 72 72 72 72 72 72 72
71 68 70 72 72 72 73 72 71 70 67 65 68 67 71 70 69 67 72 74 74 73 72 72 72 72 71 71 71 71 71 71 71
69 66 66 66 67 68 68 67 68 67 69 69 68 71 71 69 68 69 72 74 74 73 72 72 71 71 71 71 71 70 70 70 70
73 69 67 66 66 66 66 66 68 71 72 71 71 71 71 69 68 66 70 73 73 73 72 72 71 71 71 70 70 69 69 69 69
71 71 72 70 68 69 68 68 70 70 70 71 72 71 70 71 69 64 67 71 73 73 72 72 71 71 71 70 69 69 69 68 68
73 71 71 70 71 71 70 69 69 68 69 69 71 70 70 70 70 65 64 68 71 73 73 72 72 71 71 70 69 69 68 68 68
72 72 70 70 72 72 71 70 69 68 70 67 69 70 69 70 70 69 65 66 67 70 73 73 72 72 71 71 70 69 68 68 68
71 70 69 71 71 70 69 68 67 66 66 66 67 67 68 68 68 69 68 66 68 67 70 72 73 72 72 73 72 70 69 68 68
71 70 70 71 69 68 68 66 66 64 64 66 65 65 65 66 71 67 68 68 67 65 66 67 68 70 72 73 73 71 70 69 68
71 70 70 69 67 66 66 65 65 64 64 69 67 64 64 65 65 67 70 68 68 67 64 63 63 66 69 72 73 73 71 69 69
71 69 69 69 67 67 67 66 64 63 64 62 61 62 64 65 65 66 66 67 68 66 66 63 62 64 67 69 71 72 73 71 69
71 70 70 70 68 68 67 66 63 63 63 59 59 57 60 63 65 65 66 66 66 66 67 65 65 64 61 62 67 69 71 71 70
69 70 70 70 68 66 67 66 64 61 63 64 60 55 54 58 63 65 65 65 63 63 64 64 63 60 59 61 62 64 65 68 71
67 69 69 69 68 67 66 67 65 63 61 62 65 61 60 56 56 61 63 61 62 60 59 58 59 58 58 58 58 60 61 64 68
65 66 66 66 65 65 65 65 65 64 63 62 60 60 60 60 57 54 57 59 58 56 56 56 55 55 55 54 55 58 60 63 66
MSLP
1018.72 1019.03 1019.32 1019.57 1019.82 1019.91 1020.04 1020.39 1020.50 1020.71 1020.69 1020.76 1020.86 1020.82 1020.77 1021.08 1021.50 1021.83 1022.04 1022.08 1022.02 1022.13 1022.24 1022.29 1022.31 1022.38 1022.43 1022.39 1022.37 1022.40 1022.46 1022.47 1022.51
1019.14 1019.44 1019.63 1019.83 1020.03 1020.11 1020.30 1020.60 1020.74 1021.08 1021.09 1021.08 1021.11 1021.07 1020.98 1021.46 1021.95 1022.39 1022.50 1022.44 1022.38 1022.48 1022.59 1022.70 1022.70 1022.79 1022.81 1022.79 1022.84 1022.83 1022.82 1022.85 1022.93
1019.50 1019.70 1019.83 1020.00 1020.30 1020.48 1020.68 1020.87 1021.05 1021.43 1021.53 1021.48 1021.41 1021.41 1021.34 1021.72 1022.26 1022.73 1022.87 1022.81 1022.79 1022.86 1022.98 1023.10 1023.10 1023.08 1023.14 1023.16 1023.22 1023.23 1023.20 1023.24 1023.34
1019.78 1020.02 1020.16 1020.38 1020.67 1020.86 1020.95 1021.18 1021.42 1021.81 1021.90 1021.86 1021.72 1021.70 1021.64 1022.08 1022.49 1022.87 1023.16 1023.14 1023.15 1023.23 1023.28 1023.42 1023.48 1023.52 1023.54 1023.61 1023.59 1023.53 1023.59 1023.56 1023.68
1019.96 1020.33 1020.39 1020.75 1021.00 1021.24 1021.36 1021.54 1021.88 1022.13 1022.20 1022.10 1022.07 1022.08 1022.04 1022.34 1022.82 1023.27 1023.38 1023.37 1023.47 1023.60 1023.65 1023.72 1023.82 1023.91 1023.98 1023.97 1024.04 1024.02 1024.03 1023.99 1024.11
1020.26 1020.54 1020.71 1021.11 1021.34 1021.50 1021.74 1021.97 1022.25 1022.43 1022.49 1022.41 1022.40 1022.37 1022.33 1022.60 1023.09 1023.54 1023.55 1023.58 1023.73 1023.90 1024.01 1024.08 1024.21 1024.34 1024.38 1024.42 1024.45 1024.49 1024.46 1024.49 1024.56
1020.47 1020.74 1021.04 1021.34 1021.59 1021.71 1021.93 1022.17 1022.42 1022.49 1022.68 1022.68 1022.51 1022.40 1022.30 1022.83 1023.34 1023.75 1023.72 1023.77 1023.93 1024.13 1024.27 1024.37 1024.48 1024.66 1024.67 1024.70 1024.77 1024.90 1024.90 1024.98 1025.01
1020.57 1021.14 1021.37 1021.58 1021.77 1021.92 1022.17 1022.35 1022.46 1022.53 1022.50 1022.51 1022.55 1022.36 1022.36 1022.85 1023.32 1023.74 1023.85 1023.89 1024.05 1024.28 1024.40 1024.51 1024.64 1024.81 1024.94 1024.95 1025.03 1025.17 1025.20 1025.32 1025.35
1020.21 1020.95 1021.20 1021.43 1021.55 1021.81 1022.02 1022.20 1022.16 1022.04 1022.12 1022.26 1022.35 1022.36 1022.54 1022.97 1023.41 1023.66 1023.83 1023.94 1024.09 1024.27 1024.47 1024.60 1024.80 1025.00 1025.10 1025.23 1025.31 1025.42 1025.50 1025.64 1025.62
1019.95 1020.41 1020.67 1020.96 1021.16 1021.44 1021.66 1021.82 1021.91 1022.02 1022.07 1022.12 1022.29 1022.51 1022.68 1022.82 1023.36 1023.73 1023.77 1023.91 1024.05 1024.24 1024.42 1024.62 1024.86 1025.04 1025.18 1025.35 1025.52 1025.66 1025.70 1025.86 1025.85
1019.60 1019.91 1020.17 1020.43 1020.63 1020.90 1021.20 1021.49 1021.79 1022.03 1022.09 1022.23 1022.33 1022.60 1022.73 1022.86 1023.06 1023.61 1023.78 1023.83 1024.00 1024.20 1024.31 1024.51 1024.71 1024.96 1025.13 1025.34 1025.57 1025.76 1025.87 1025.96 1026.08
1019.11 1019.48 1019.86 1020.13 1020.33 1020.62 1020.96 1021.29 1021.54 1021.91 1021.99 1022.25 1022.32 1022.47 1022.67 1022.79 1022.98 1023.24 1023.58 1023.78 1023.91 1024.04 1024.11 1024.29 1024.52 1024.76 1024.95 1025.16 1025.50 1025.66 1025.83 1025.90 1026.01
1019.13 1019.53 1019.94 1020.05 1020.27 1020.61 1020.96 1021.32 1021.75 1021.99 1022.14 1022.39 1022.48 1022.37 1022.48 1022.64 1022.74 1022.84 1023.07 1023.42 1023.64 1023.78 1023.92 1024.07 1024.23 1024.47 1024.64 1024.70 1024.92 1025.30 1025.42 1025.64 1025.82
1019.27 1019.62 1019.77 1019.94 1020.34 1020.65 1020.92 1021.40 1021.73 1022.02 1022.15 1022.33 1022.46 1022.46 1022.54 1022.64 1022.55 1022.71 1022.73 1022.84 1023.08 1023.40 1023.61 1023.78 1023.99 1024.18 1024.31 1024.44 1024.52 1024.79 1025.18 1025.42 1025.70
1019.17 1019.52 1019.70 1019.97 1020.44 1020.87 1021.11 1021.47 1021.70 1021.92 1022.07 1022.17 1022.34 1022.48 1022.50 1022.47 1022.54 1022.47 1022.35 1022.51 1022.57 1022.82 1023.23 1023.55 1023.77 1023.97 1024.11 1024.21 1024.20 1024.23 1024.55 1024.83 1025.11
1018.86 1019.36 1019.62 1019.84 1020.44 1020.77 1021.10 1021.48 1021.84 1022.13 1022.12 1022.44 1022.55 1022.42 1022.28 1022.30 1022.23 1022.15 1022.21 1022.28 1022.24 1022.49 1022.77 1023.20 1023.50 1023.60 1023.66 1023.81 1024.02 1024.04 1024.12 1024.41 1024.72
1018.64 1018.86 1019.24 1019.58 1020.06 1020.44 1020.81 1021.19 1021.75 1022.06 1022.24 1022.69 1022.84 1022.84 1022.45 1022.22 1022.02 1021.97 1021.98 1021.99 1022.07 1022.22 1022.48 1022.79 1022.99 1023.14 1023.38 1023.50 1023.75 1023.91 1024.04 1023.98 1024.27
1018.65 1018.67 1018.91 1019.19 1019.52 1020.10 1020.46 1020.82 1021.28 1021.95 1022.18 1022.24 1022.66 1023.03 1022.90 1022.33 1021.92 1021.83 1021.80 1021.87 1022.09 1022.27 1022.45 1022.75 1023.13 1023.46 1023.69 1023.66 1023.74 1023.83 1024.04 1024.09 1023.84
1018.59 1018.62 1018.69 1018.95 1019.18 1019.71 1020.11 1020.43 1020.67 1021.44 1021.91 1022.02 1022.07 1022.52 1022.79 1023.00 1022.82 1022.23 1022.15 1022.16 1022.34 1022.63 1022.86 1023.14 1023.41 1023.55 1023.66 1023.86 1024.00 1024.06 1024.03 1024.12 1023.93
1018.50 1018.72 1019.02 1019.12 1019.55 1019.62 1019.64 1020.33 1020.53 1021.11 1021.54 1021.58 1021.76 1022.18 1022.30 1022.59 1023.29 1022.98 1022.73 1022.63 1022.81 1023.17 1023.38 1023.59 1023.99 1024.23 1024.24 1024.19 1024.30 1024.18 1024.21 1024.08 1023.88
Wind_Speed
17 17 16 14 14 15 17 16 16 13 11 10 10 11 8 12 12 11 11 6 16 17 16 16 16 16 17 17 17 18 18 18 18
17 16 13 15 13 15 17 16 15 13 11 10 10 12 13 11 11 8 6 7 16 16 15 15 16 16 16 17 17 17 18 18 18
16 13 15 14 15 16 15 16 16 14 11 9 9 10 7 11 11 7 5 12 15 15 14 14 15 15 16 16 16 17 17 17 17
15 12 15 14 15 14 13 16 16 13 10 6 5 8 11 9 6 9 4 11 13 14 13 13 14 14 15 15 15 16 16 16 16
12 10 14 13 13 12 12 14 13 11 8 4 4 6 7 8 9 5 4 11 12 12 12 12 13 13 13 13 13 14 14 15 14
9 9 11 13 11 11 12 11 11 9 6 1 2 5 1 7 6 3 8 10 11 11 11 11 11 11 12 12 12 13 13 13 13
8 8 10 11 9 10 9 9 9 8 3 2 4 3 4 6 6 3 8 9 10 10 10 10 10 10 10 10 11 11 11 12 11
6 3 3 4 6 3 4 4 3 5 4 4 3 2 5 4 4 5 7 8 9 8 8 9 9 9 8 9 10 9 10 10 10
7 5 5 5 4 6 5 4 5 4 3 5 4 2 3 3 3 5 8 7 8 8 8 8 7 7 7 8 8 8 8 8 8
6 5 6 5 5 5 5 5 4 3 2 1 3 3 1 3 4 3 10 8 8 7 7 7 7 6 6 7 6 6 6 6 7
7 5 5 5 5 5 5 3 4 3 2 2 3 3 2 1 3 4 5 10 8 8 8 7 7 6 6 6 6 5 5 5 5
5 4 4 3 4 5 4 3 3 3 2 1 2 3 4 5 4 5 4 5 9 9 9 9 9 8 8 6 5 5 5 5 5
3 2 4 4 4 3 4 3 2 2 3 2 3 2 2 2 4 5 5 5 5 8 10 9 10 10 10 10 11 11 11 9 7
5 3 4 4 3 3 3 2 3 3 2 3 1 1 2 3 3 4 5 6 6 5 10 11 10 10 12 11 12 13 12 10 9
5 3 4 4 4 3 2 2 1 2 3 3 3 3 4 4 4 5 4 4 6 6 6 5 5 9 9 13 13 13 16 15 15
7 4 4 5 5 4 5 3 4 2 1 2 2 3 6 6 5 4 4 5 6 6 5 4 4 5 14 14 14 14 13 16 17
6 6 5 6 4 5 5 5 2 3 4 3 1 2 3 4 5 5 5 6 4 5 5 5 6 4 4 6 12 10 13 13 13
6 6 5 6 5 4 5 5 6 4 3 5 3 0 3 0 1 5 4 4 2 3 2 3 5 5 4 4 1 4 5 13 15
6 4 5 5 4 6 4 4 4 4 4 2 3 3 2 1 3 2 1 2 3 3 3 5 5 5 3 4 2 3 4 9 12
3 4 3 3 2 3 4 5 4 4 4 3 3 4 2 4 3 3 2 3 3 4 4 4 4 5 4 4 5 7 6 9 9
Wind_Direction
106 102 107 110 108 110 110 108 105 103 101 82 56 28 19 76 72 69 63 64 75 74 73 70 71 70 69 70 72 69 68 67 66
114 113 117 105 105 109 111 112 109 106 98 73 47 27 65 77 76 71 60 70 77 76 76 75 75 74 74 74 72 73 73 69 67
123 120 113 113 104 103 106 110 105 107 94 66 43 32 48 95 92 82 64 75 79 78 77 76 77 78 77 75 77 76 74 72 69
126 118 115 105 104 104 110 110 107 105 92 73 54 39 52 77 94 89 71 79 81 81 82 81 80 80 80 80 80 79 76 76 73
122 119 121 109 105 102 98 110 112 106 98 87 34 17 358 92 85 82 87 90 88 85 84 84 85 85 83 83 82 80 79 76 73
138 118 116 114 113 111 108 114 118 107 102 86 313 325 272 95 98 94 102 98 94 91 88 86 85 84 84 84 83 81 80 78 77
115 114 117 116 117 113 117 127 146 149 151 244 268 267 105 100 105 111 115 107 102 99 96 92 90 87 86 87 85 83 81 80 77
122 121 124 128 143 134 135 145 192 214 187 199 247 200 109 117 120 135 130 120 115 113 110 104 100 96 92 90 87 86 83 81 78
140 162 171 167 183 160 176 188 223 226 162 185 165 134 103 119 122 149 148 142 135 132 126 118 113 109 104 97 94 90 85 83 81
160 183 172 175 179 170 183 194 171 176 222 264 106 89 105 114 133 153 163 163 160 154 144 135 131 128 123 116 109 103 97 89 84
177 186 170 168 175 166 168 172 150 185 201 190 169 166 202 162 137 151 177 175 177 178 169 165 160 156 147 138 133 127 118 109 96
145 133 143 180 155 156 149 168 148 160 187 275 202 191 207 192 188 161 173 181 187 193 196 188 185 183 175 164 166 164 167 161 149
130 144 158 182 154 145 140 137 148 207 166 195 255 197 231 208 203 198 162 177 188 200 206 209 203 200 205 197 191 192 195 189 182
149 181 166 166 139 138 150 170 161 193 193 189 224 197 205 239 250 237 206 191 166 182 207 203 210 214 213 224 208 206 204 199 200
159 180 168 150 141 157 147 161 196 166 186 196 190 235 231 228 226 227 225 217 190 180 174 192 207 214 224 231 237 222 214 207 202
164 175 172 158 158 182 172 180 187 235 293 76 306 256 229 220 223 226 227 227 190 188 180 182 195 213 216 220 234 246 248 222 214
169 175 177 177 163 186 185 168 171 188 187 164 182 321 317 259 225 217 220 221 194 187 204 193 200 193 196 204 221 232 254 268 237
215 203 182 177 167 182 194 179 166 185 235 194 155 351 257 300 247 222 198 178 158 169 147 88 64 65 72 56 219 229 285 273 266
260 228 188 188 176 180 192 196 167 152 198 195 208 212 181 293 309 336 302 81 95 91 77 71 50 31 30 28 16 312 292 276 269
281 212 230 243 205 199 198 229 173 188 192 188 161 235 231 208 220 270 265 11 49 73 79 70 58 32 24 27 37 7 323 282 271